QPF
0.00 0.00 0.00 0.00 0.00 0.00 0.00 0.00 0.00 0.00 0.00 0.00 0.00 0.00 0.00 0.00 0.00 0.00 0.00 0.00 0.00 0.00 0.00 0.00 0.00 0.00 0.00 0.00 0.00 0.00 0.00 0.00 0.00 0.00 0.00 0.00 0.00 0.00
0.00 0.00 0.00 0.00 0.00 0.00 0.00 0.00 0.00 0.01 0.01 0.00 0.00 0.00 0.00 0.00 0.00 0.00 0.00 0.00 0.00 0.00 0.00 0.00 0.00 0.00 0.00 0.00 0.00 0.00 0.00 0.00 0.00 0.00 0.00 0.00 0.00 0.00
0.00 0.00 0.00 0.00 0.00 0.00 0.00 0.00 0.00 0.00 0.00 0.00 0.00 0.00 0.00 0.00 0.00 0.00 0.00 0.00 0.00 0.00 0.00 0.00 0.00 0.00 0.00 0.00 0.00 0.00 0.00 0.00 0.00 0.00 0.00 0.00 0.00 0.00
0.00 0.00 0.00 0.00 0.00 0.00 0.00 0.00 0.00 0.00 0.00 0.00 0.00 0.00 0.00 0.00 0.00 0.00 0.00 0.00 0.00 0.00 0.00 0.00 0.00 0.00 0.00 0.00 0.00 0.00 0.00 0.00 0.00 0.00 0.00 0.00 0.00 0.00
0.00 0.00 0.00 0.00 0.00 0.00 0.00 0.00 0.00 0.00 0.00 0.00 0.00 0.00 0.00 0.00 0.00 0.00 0.00 0.00 0.00 0.00 0.00 0.00 0.00 0.00 0.00 0.00 0.00 0.00 0.00 0.00 0.00 0.00 0.00 0.00 0.00 0.00
0.00 0.00 0.00 0.00 0.00 0.00 0.00 0.00 0.00 0.00 0.00 0.00 0.00 0.00 0.00 0.00 0.00 0.00 0.00 0.00 0.00 0.00 0.00 0.00 0.00 0.00 0.00 0.00 0.00 0.00 0.00 0.00 0.00 0.00 0.00 0.00 0.00 0.00
0.00 0.00 0.00 0.00 0.00 0.00 0.00 0.00 0.00 0.00 0.00 0.00 0.00 0.00 0.00 0.00 0.00 0.00 0.00 0.00 0.00 0.00 0.00 0.00 0.00 0.00 0.00 0.00 0.00 0.00 0.00 0.00 0.00 0.00 0.00 0.00 0.00 0.00
0.00 0.00 0.00 0.00 0.00 0.00 0.00 0.00 0.00 0.00 0.00 0.00 0.00 0.00 0.00 0.00 0.00 0.00 0.00 0.00 0.00 0.00 0.00 0.00 0.00 0.00 0.00 0.00 0.00 0.00 0.00 0.00 0.00 0.00 0.00 0.00 0.00 0.00
0.00 0.00 0.00 0.00 0.00 0.00 0.00 0.00 0.00 0.00 0.01 0.00 0.00 0.00 0.00 0.00 0.00 0.00 0.00 0.00 0.00 0.00 0.00 0.00 0.00 0.00 0.00 0.00 0.00 0.00 0.00 0.00 0.00 0.00 0.00 0.00 0.00 0.00
0.00 0.00 0.00 0.00 0.00 0.00 0.00 0.00 0.00 0.00 0.00 0.00 0.00 0.00 0.00 0.00 0.00 0.00 0.00 0.00 0.00 0.00 0.00 0.00 0.00 0.00 0.00 0.00 0.00 0.00 0.00 0.00 0.00 0.00 0.00 0.00 0.00 0.00
0.00 0.00 0.00 0.00 0.00 0.00 0.01 0.00 0.00 0.00 0.00 0.00 0.00 0.00 0.00 0.00 0.00 0.00 0.00 0.00 0.00 0.00 0.00 0.00 0.00 0.00 0.00 0.00 0.00 0.00 0.00 0.00 0.00 0.00 0.00 0.00 0.00 0.00
0.00 0.00 0.00 0.00 0.00 0.01 0.01 0.00 0.00 0.00 0.00 0.00 0.00 0.00 0.00 0.00 0.00 0.00 0.00 0.00 0.00 0.00 0.00 0.00 0.00 0.00 0.00 0.00 0.00 0.00 0.00 0.00 0.00 0.00 0.00 0.00 0.00 0.00
0.00 0.00 0.00 0.00 0.01 0.01 0.00 0.00 0.00 0.00 0.00 0.00 0.00 0.00 0.00 0.00 0.00 0.00 0.00 0.00 0.00 0.00 0.00 0.00 0.00 0.00 0.00 0.00 0.00 0.00 0.00 0.00 0.00 0.00 0.00 0.00 0.00 0.00
0.00 0.00 0.00 0.00 0.00 0.00 0.00 0.00 0.00 0.00 0.00 0.00 0.00 0.00 0.00 0.00 0.00 0.00 0.00 0.00 0.00 0.00 0.00 0.00 0.00 0.00 0.00 0.00 0.00 0.00 0.00 0.00 0.00 0.00 0.00 0.00 0.00 0.00
0.00 0.00 0.00 0.00 0.00 0.00 0.00 0.00 0.00 0.00 0.00 0.00 0.00 0.00 0.00 0.00 0.00 0.00 0.00 0.00 0.00 0.00 0.00 0.00 0.00 0.00 0.00 0.00 0.00 0.00 0.00 0.00 0.00 0.00 0.00 0.00 0.00 0.00
0.00 0.00 0.00 0.00 0.00 0.00 0.00 0.00 0.00 0.00 0.00 0.00 0.00 0.00 0.00 0.00 0.00 0.00 0.00 0.00 0.00 0.00 0.00 0.00 0.00 0.00 0.00 0.00 0.00 0.00 0.00 0.00 0.00 0.00 0.00 0.00 0.00 0.00
0.00 0.00 0.00 0.00 0.00 0.00 0.00 0.00 0.00 0.00 0.00 0.00 0.00 0.00 0.00 0.00 0.00 0.00 0.00 0.00 0.00 0.00 0.00 0.00 0.00 0.00 0.00 0.00 0.00 0.00 0.00 0.00 0.00 0.00 0.00 0.00 0.00 0.00
0.00 0.00 0.00 0.00 0.00 0.00 0.00 0.00 0.00 0.00 0.00 0.00 0.00 0.00 0.00 0.00 0.00 0.00 0.00 0.00 0.00 0.00 0.00 0.00 0.00 0.00 0.00 0.00 0.00 0.00 0.00 0.00 0.00 0.00 0.00 0.00 0.00 0.00
0.00 0.00 0.00 0.00 0.00 0.00 0.00 0.00 0.00 0.00 0.00 0.00 0.00 0.00 0.00 0.00 0.00 0.00 0.00 0.00 0.00 0.00 0.00 0.00 0.00 0.00 0.00 0.00 0.00 0.00 0.00 0.00 0.00 0.00 0.00 0.00 0.00 0.00
0.00 0.00 0.00 0.00 0.00 0.00 0.00 0.00 0.00 0.00 0.00 0.00 0.00 0.00 0.00 0.00 0.00 0.00 0.00 0.00 0.00 0.00 0.00 0.00 0.00 0.00 0.00 0.00 0.00 0.00 0.00 0.00 0.00 0.00 0.00 0.00 0.00 0.00
0.00 0.00 0.00 0.00 0.00 0.00 0.00 0.00 0.00 0.00 0.00 0.00 0.00 0.00 0.00 0.00 0.00 0.00 0.00 0.00 0.00 0.00 0.00 0.00 0.00 0.00 0.00 0.00 0.00 0.00 0.00 0.00 0.00 0.00 0.00 0.00 0.00 0.00
0.00 0.00 0.00 0.00 0.00 0.00 0.00 0.00 0.00 0.00 0.00 0.00 0.00 0.00 0.00 0.00 0.00 0.00 0.00 0.00 0.00 0.00 0.00 0.00 0.00 0.00 0.00 0.00 0.00 0.00 0.00 0.00 0.00 0.00 0.00 0.00 0.00 0.00
0.00 0.00 0.00 0.00 0.00 0.00 0.00 0.00 0.00 0.00 0.00 0.00 0.00 0.00 0.00 0.00 0.00 0.00 0.00 0.00 0.00 0.00 0.00 0.00 0.00 0.00 0.00 0.00 0.00 0.00 0.00 0.00 0.00 0.00 0.00 0.00 0.00 0.00
MSLP
1022.17 1022.05 1022.20 1022.10 1021.85 1021.63 1021.51 1021.44 1021.35 1020.75 1020.16 1019.40 1019.12 1018.34 1018.05 1017.81 1017.43 1017.17 1016.84 1016.51 1016.21 1016.00 1015.80 1015.49 1015.84 1015.75 1015.51 1015.84 1015.96 1015.97 1015.54 1015.86 1015.86 1016.22 1016.48 1016.61 1016.68 1016.68
1022.00 1021.99 1022.09 1022.03 1021.78 1021.52 1021.37 1021.15 1021.09 1020.92 1020.20 1019.73 1019.01 1018.50 1018.01 1017.63 1017.36 1017.31 1017.06 1016.68 1016.28 1016.05 1016.02 1015.95 1015.77 1015.71 1016.11 1016.22 1016.45 1016.31 1015.64 1015.76 1015.84 1016.20 1016.42 1016.69 1016.86 1016.90
1022.16 1022.27 1022.13 1021.97 1021.68 1021.40 1021.12 1020.90 1020.71 1020.56 1020.04 1019.19 1018.57 1018.07 1017.87 1017.58 1017.33 1017.19 1016.99 1016.75 1016.45 1016.17 1015.86 1015.66 1015.71 1015.67 1015.60 1015.92 1016.27 1015.92 1015.64 1015.64 1016.05 1016.21 1016.19 1016.44 1016.78 1017.08
1022.30 1022.27 1021.98 1021.68 1021.45 1021.20 1020.96 1020.72 1020.37 1019.97 1019.70 1019.04 1018.50 1018.09 1017.73 1017.49 1017.39 1017.28 1016.97 1016.68 1016.65 1016.11 1015.73 1015.34 1015.07 1015.11 1015.15 1015.15 1015.28 1015.44 1015.43 1015.56 1015.88 1015.81 1016.11 1016.19 1016.59 1016.97
1022.26 1022.08 1021.72 1021.46 1021.23 1020.95 1020.66 1020.33 1019.88 1019.37 1019.19 1018.90 1018.32 1017.94 1017.63 1017.36 1017.24 1017.09 1016.92 1016.76 1016.49 1016.20 1015.82 1015.48 1015.16 1014.71 1014.53 1014.63 1014.80 1014.81 1014.85 1015.16 1015.80 1015.97 1015.88 1016.13 1016.64 1016.91
1022.02 1021.73 1021.40 1021.17 1020.94 1020.62 1020.22 1019.83 1019.44 1019.27 1018.97 1018.64 1018.24 1017.89 1017.46 1016.94 1016.98 1016.94 1016.79 1016.62 1016.47 1016.13 1015.78 1015.51 1015.20 1014.86 1014.54 1014.35 1014.23 1014.35 1014.30 1014.82 1015.12 1015.21 1015.46 1015.82 1016.34 1016.81
1021.72 1021.40 1021.10 1020.83 1020.40 1020.01 1019.67 1019.37 1019.16 1018.74 1018.39 1018.08 1017.80 1017.53 1017.21 1017.06 1016.94 1016.70 1016.70 1016.55 1016.28 1015.98 1015.61 1015.29 1015.09 1015.02 1014.82 1014.69 1014.53 1014.38 1014.42 1014.53 1014.31 1014.49 1014.90 1015.38 1015.80 1016.37
1021.63 1021.23 1020.88 1020.46 1019.98 1019.58 1019.29 1018.89 1018.54 1018.12 1017.76 1017.49 1017.13 1016.89 1016.72 1016.60 1016.44 1016.38 1016.43 1016.49 1016.36 1015.50 1015.55 1015.36 1015.15 1015.03 1014.89 1014.75 1014.50 1014.38 1014.34 1014.33 1014.31 1014.49 1014.73 1014.99 1015.35 1015.75
1021.57 1021.10 1020.61 1020.12 1019.75 1019.28 1018.79 1018.26 1017.78 1017.32 1016.93 1016.73 1016.42 1016.22 1016.00 1015.97 1015.88 1015.85 1015.92 1015.95 1015.75 1015.22 1015.43 1015.19 1014.93 1014.94 1014.51 1014.31 1014.16 1014.13 1014.06 1014.08 1014.09 1014.28 1014.43 1014.64 1014.86 1015.22
1021.43 1020.92 1020.41 1019.90 1019.41 1018.84 1018.23 1017.64 1017.11 1016.60 1016.12 1015.95 1015.74 1015.52 1015.30 1015.16 1015.09 1015.00 1015.02 1015.14 1015.02 1014.70 1014.96 1014.79 1014.31 1014.49 1014.06 1013.87 1013.70 1013.60 1013.56 1013.63 1013.68 1013.87 1014.09 1014.24 1014.47 1014.79
1021.21 1020.71 1020.17 1019.63 1019.06 1018.44 1017.75 1017.04 1016.41 1015.77 1015.26 1015.02 1014.83 1014.65 1014.48 1014.34 1014.23 1014.13 1014.24 1014.48 1014.23 1013.84 1014.02 1014.40 1013.95 1013.94 1013.67 1013.40 1013.05 1012.87 1012.93 1013.03 1013.22 1013.46 1013.62 1013.78 1014.09 1014.40
1021.00 1020.44 1019.89 1019.29 1018.56 1017.82 1017.31 1016.73 1016.06 1015.40 1014.94 1014.63 1014.45 1014.20 1014.01 1013.89 1013.68 1013.73 1013.88 1014.02 1014.00 1013.68 1012.97 1013.67 1013.28 1013.67 1013.41 1012.55 1012.24 1012.21 1012.23 1012.22 1012.44 1012.70 1012.95 1013.18 1013.40 1013.75
1020.91 1020.31 1019.68 1019.04 1018.30 1017.73 1017.25 1016.75 1016.07 1015.51 1014.88 1014.37 1013.99 1013.73 1013.57 1013.33 1013.11 1012.98 1013.00 1013.15 1013.16 1012.87 1012.50 1012.72 1012.77 1013.09 1013.24 1012.92 1012.20 1011.85 1011.95 1011.99 1012.09 1012.06 1012.05 1012.19 1012.44 1012.77
1020.81 1020.28 1019.68 1018.99 1018.43 1017.92 1017.42 1016.81 1016.24 1015.73 1015.22 1014.70 1014.20 1013.76 1013.41 1013.02 1012.69 1012.37 1012.08 1012.00 1012.00 1011.85 1011.73 1012.10 1012.25 1012.42 1012.58 1012.67 1012.45 1011.88 1011.64 1011.77 1011.95 1012.07 1011.95 1011.89 1011.96 1012.09
1020.76 1020.24 1019.77 1019.24 1018.73 1018.21 1017.68 1017.07 1016.51 1016.00 1015.48 1014.98 1014.50 1014.03 1013.60 1013.16 1012.67 1012.21 1011.75 1011.48 1011.28 1011.17 1011.04 1011.21 1011.42 1011.60 1011.85 1011.91 1011.91 1011.72 1011.69 1011.64 1011.70 1011.80 1011.95 1011.92 1011.85 1012.15
1020.84 1020.44 1020.10 1019.65 1019.10 1018.61 1018.07 1017.53 1017.03 1016.49 1016.05 1015.52 1014.94 1014.35 1013.70 1013.10 1012.57 1012.16 1011.71 1011.33 1011.03 1011.00 1010.78 1010.77 1010.87 1011.05 1011.06 1011.14 1011.34 1011.47 1011.52 1011.73 1011.50 1011.57 1011.66 1011.71 1011.73 1011.86
1021.00 1020.80 1020.56 1020.18 1019.65 1019.08 1018.59 1018.07 1017.57 1017.08 1016.62 1016.10 1015.49 1014.84 1014.13 1013.42 1012.77 1012.27 1011.86 1011.56 1011.40 1011.16 1010.90 1010.66 1010.40 1010.49 1010.61 1010.78 1011.02 1011.12 1011.21 1011.40 1011.16 1011.28 1011.54 1011.45 1011.32 1011.47
1021.56 1021.59 1021.34 1020.94 1020.49 1019.88 1019.36 1018.77 1018.26 1017.85 1017.43 1016.85 1016.23 1015.62 1014.92 1014.18 1013.43 1012.81 1012.38 1012.11 1011.83 1011.66 1011.52 1011.28 1010.91 1010.51 1010.56 1010.75 1010.75 1010.89 1010.97 1010.95 1010.84 1010.89 1011.00 1011.03 1010.90 1010.60
1022.06 1022.08 1021.88 1021.52 1021.05 1020.53 1020.06 1019.56 1019.11 1018.71 1018.20 1017.65 1017.08 1016.45 1015.76 1014.98 1014.28 1013.67 1013.24 1012.87 1012.55 1012.28 1012.04 1011.79 1011.51 1011.38 1011.20 1011.23 1011.13 1011.03 1011.17 1010.98 1010.79 1010.78 1010.84 1010.75 1010.80 1010.78
1022.40 1022.39 1022.23 1021.88 1021.44 1020.97 1020.54 1020.17 1019.72 1019.28 1018.79 1018.28 1017.71 1017.22 1016.58 1015.91 1015.20 1014.65 1014.21 1013.89 1013.57 1013.02 1012.64 1012.20 1011.98 1011.79 1011.72 1011.66 1011.70 1011.58 1011.05 1011.18 1011.30 1011.22 1011.08 1011.02 1010.78 1010.43
1022.44 1022.35 1022.14 1021.81 1021.49 1021.14 1020.83 1020.48 1020.19 1019.82 1019.37 1018.94 1018.41 1017.88 1017.38 1016.71 1016.02 1015.48 1015.02 1014.56 1014.08 1013.66 1013.26 1012.78 1012.14 1011.64 1011.42 1011.56 1012.01 1011.92 1011.46 1011.08 1011.16 1011.26 1011.26 1011.16 1010.89 1010.54
1022.17 1022.05 1021.71 1021.54 1021.36 1021.10 1020.85 1020.61 1020.26 1019.98 1019.56 1019.17 1018.76 1018.32 1017.83 1017.33 1016.72 1016.24 1015.68 1015.22 1014.65 1014.21 1013.65 1012.77 1011.97 1011.45 1011.32 1011.47 1011.94 1012.04 1011.96 1011.68 1011.17 1010.99 1010.97 1011.05 1011.12 1010.95
1021.59 1021.54 1021.40 1021.28 1021.14 1020.99 1020.82 1020.66 1020.47 1020.24 1019.86 1019.47 1019.05 1018.55 1018.09 1017.74 1017.05 1016.66 1016.19 1015.63 1015.09 1014.49 1013.96 1013.20 1012.48 1011.91 1011.83 1011.88 1012.03 1012.14 1012.15 1012.01 1011.75 1011.41 1011.20 1010.94 1010.80 1010.75
Thickness
5300 5293 5283 5277 5273 5271 5268 5266 5264 5269 5276 5283 5286 5287 5290 5295 5299 5305 5313 5322 5332 5343 5356 5370 5380 5388 5397 5405 5411 5419 5431 5439 5448 5454 5461 5468 5478 5485
5285 5277 5265 5259 5258 5256 5255 5254 5252 5252 5258 5264 5273 5275 5278 5281 5284 5289 5294 5300 5309 5318 5328 5342 5354 5365 5372 5382 5390 5398 5410 5418 5428 5435 5443 5449 5456 5464
5266 5259 5252 5249 5248 5246 5245 5244 5243 5239 5242 5254 5260 5264 5266 5268 5271 5275 5279 5285 5293 5299 5308 5320 5331 5344 5355 5364 5370 5379 5390 5399 5406 5415 5424 5432 5437 5445
5253 5246 5243 5242 5238 5236 5233 5232 5231 5230 5229 5235 5242 5247 5250 5253 5257 5260 5263 5269 5276 5284 5293 5303 5314 5324 5335 5348 5356 5363 5373 5382 5389 5399 5405 5415 5418 5425
5241 5236 5233 5230 5227 5223 5220 5219 5218 5219 5215 5216 5224 5228 5232 5236 5240 5245 5249 5255 5261 5269 5278 5287 5295 5305 5316 5327 5337 5347 5357 5367 5372 5375 5388 5396 5401 5409
5231 5227 5222 5217 5213 5209 5207 5205 5203 5201 5200 5200 5204 5210 5215 5221 5225 5229 5233 5239 5247 5255 5264 5272 5280 5287 5297 5308 5321 5331 5340 5344 5353 5364 5372 5380 5385 5390
5223 5218 5212 5207 5204 5200 5196 5192 5188 5188 5187 5188 5192 5196 5201 5203 5206 5212 5217 5223 5233 5243 5252 5259 5268 5276 5283 5290 5298 5310 5319 5327 5339 5347 5356 5366 5371 5377
5213 5208 5202 5198 5195 5192 5187 5183 5179 5176 5175 5176 5180 5185 5190 5192 5194 5197 5201 5209 5219 5230 5237 5245 5254 5263 5271 5277 5284 5291 5300 5309 5319 5328 5334 5346 5355 5362
5202 5198 5196 5193 5188 5184 5180 5176 5172 5168 5166 5167 5171 5176 5182 5183 5185 5189 5190 5197 5209 5220 5225 5235 5243 5251 5260 5268 5275 5281 5288 5295 5303 5311 5319 5328 5337 5346
5194 5191 5189 5186 5181 5178 5174 5170 5166 5162 5160 5160 5164 5169 5173 5177 5180 5185 5188 5194 5204 5213 5217 5230 5237 5242 5252 5260 5266 5273 5279 5286 5293 5298 5305 5312 5320 5327
5188 5186 5184 5181 5177 5172 5169 5166 5164 5161 5159 5158 5160 5164 5168 5172 5176 5181 5187 5192 5202 5212 5216 5221 5233 5237 5244 5254 5262 5267 5272 5278 5283 5287 5292 5298 5304 5310
5185 5183 5181 5179 5176 5173 5167 5163 5161 5160 5157 5157 5157 5160 5164 5168 5173 5178 5182 5189 5195 5200 5216 5220 5229 5231 5235 5249 5257 5263 5267 5271 5275 5280 5284 5289 5293 5297
5182 5181 5180 5178 5176 5172 5167 5162 5160 5158 5158 5158 5160 5162 5166 5170 5176 5182 5187 5191 5197 5204 5215 5219 5224 5227 5233 5238 5247 5255 5260 5263 5267 5271 5275 5279 5283 5289
5179 5178 5178 5177 5175 5171 5167 5164 5161 5159 5158 5159 5161 5165 5169 5174 5180 5187 5193 5199 5204 5211 5217 5219 5222 5226 5229 5228 5232 5242 5248 5252 5255 5259 5264 5267 5271 5276
5176 5176 5176 5175 5173 5171 5168 5166 5164 5163 5163 5164 5166 5169 5173 5178 5184 5191 5198 5204 5210 5215 5220 5222 5223 5226 5227 5229 5230 5230 5233 5237 5240 5244 5248 5252 5257 5262
5171 5171 5170 5170 5170 5169 5168 5166 5165 5165 5165 5167 5170 5174 5179 5184 5190 5195 5201 5207 5213 5215 5220 5222 5224 5225 5228 5229 5228 5225 5223 5223 5225 5228 5233 5237 5242 5246
5166 5164 5164 5164 5165 5166 5166 5166 5165 5165 5166 5169 5172 5176 5181 5187 5192 5197 5203 5207 5210 5217 5221 5224 5227 5227 5227 5225 5223 5221 5217 5212 5211 5213 5218 5224 5231 5237
5160 5154 5151 5153 5156 5160 5161 5162 5163 5164 5165 5168 5171 5175 5179 5185 5192 5197 5201 5204 5211 5214 5216 5218 5221 5227 5226 5222 5220 5218 5216 5215 5212 5211 5213 5218 5224 5232
5152 5147 5144 5147 5148 5155 5155 5157 5158 5159 5161 5164 5167 5171 5176 5182 5188 5194 5197 5201 5206 5208 5210 5211 5213 5214 5222 5219 5215 5214 5214 5215 5214 5214 5213 5216 5219 5224
5150 5144 5142 5143 5146 5150 5151 5151 5153 5154 5156 5159 5163 5166 5170 5176 5182 5187 5191 5193 5195 5202 5205 5208 5209 5211 5213 5208 5213 5209 5212 5209 5210 5210 5209 5213 5218 5224
5148 5146 5141 5141 5141 5143 5143 5144 5145 5148 5150 5152 5156 5159 5163 5169 5175 5179 5183 5186 5190 5196 5199 5202 5206 5212 5213 5211 5205 5205 5209 5211 5210 5208 5209 5212 5216 5219
5145 5144 5143 5140 5137 5137 5137 5138 5141 5143 5146 5148 5150 5153 5156 5160 5166 5170 5176 5179 5184 5188 5193 5201 5207 5211 5211 5214 5206 5204 5208 5206 5210 5210 5209 5209 5205 5207
5147 5144 5140 5138 5136 5134 5134 5133 5134 5135 5139 5142 5144 5148 5150 5153 5159 5162 5166 5172 5178 5183 5188 5195 5201 5205 5207 5207 5205 5206 5202 5201 5204 5205 5204 5207 5207 5207